Weather History for Shannon, Ireland

Change the Weather History Date:

Friday, November 19, 2010

  Actual Average Record
Temperature  
Mean Temperature 45 °F -  
Max Temperature 50 °F 49 °F 57 °F (2003)
Min Temperature 40 °F 39 °F 33 °F (1999)
Degree Days  
Heating Degree Days 20    
Moisture  
Dew Point 43 °F    
Average Humidity 90    
Maximum Humidity 100    
Minimum Humidity 82    
Precipitation  
Precipitation 0.00 in 0.13 in - ()
Sea Level Pressure  
Sea Level Pressure 29.71 in    
Wind  
Wind Speed 7 mph ()    
Max Wind Speed 10 mph    
Max Gust Speed -    
Visibility 6.6 miles    
Events Rain    
Averages and records for this station are not official NWS values.
T = Trace of Precipitation, MM = Missing Value Source: Averaged Metar Reports

Daily Weather History Graph

Daily Weather History Graph

Search for Another Location

Airport:

Trip Planner

Search our weather history database for the weather conditions in past years. The results will help you decide how hot, cold, wet, or windy it might be!

Date:

Astronomy

Nov. 19, 2010 Rise Set
Actual Time 8:05 AM GMT 4:36 PM GMT
Civil Twilight 7:26 AM GMT 5:15 PM GMT
Nautical Twilight 6:43 AM GMT 5:57 PM GMT
Astronomical Twilight 6:03 AM GMT 6:38 PM GMT
Moon 3:05 PM GMT (11/19) 5:40 AM GMT (11/19)
Length of Visible Light 9h 49m
Length of Day
8h 31m
Waxing Gibbous, 95% of the Moon is Illuminated
Nov 19
Waxing Gibbous
Nov 21
Full
Nov 28
Last Quarter
Dec 5
New
Dec 13
First Quarter

Hourly Weather History & Observations

Time (GMT) Temp. Windchill Dew Point Humidity Pressure Visibility Wind Dir Wind Speed Gust Speed Precip Events Conditions
12:00 AM 42 °F - 40 °F 90% 29.65 in 12 mi SSE 8.9 mph - -   Partly Cloudy
12:00 AM 42.8 °F 38.0 °F 41.0 °F 93% 29.62 in 6.2 mi SSE 8.1 mph - N/A   Mostly Cloudy
12:30 AM 42.8 °F 37.5 °F 41.0 °F 93% 29.62 in 6.2 mi South 9.2 mph - N/A Rain Light Rain Showers
1:00 AM 42.8 °F 38.0 °F 41.0 °F 93% 29.62 in 6.2 mi SSE 8.1 mph - N/A   Mostly Cloudy
1:30 AM 42.8 °F 38.6 °F 41.0 °F 93% 29.62 in 6.2 mi SSE 6.9 mph - N/A   Mostly Cloudy
2:00 AM 42.8 °F 39.3 °F 41.0 °F 93% 29.65 in 6.2 mi SSE 5.8 mph - N/A   Mostly Cloudy
2:30 AM 42.8 °F 39.3 °F 41.0 °F 93% 29.65 in 6.2 mi SE 5.8 mph - N/A   Mostly Cloudy
3:00 AM 42.8 °F 38.6 °F 41.0 °F 93% 29.65 in 6.2 mi ESE 6.9 mph - N/A   Mostly Cloudy
3:30 AM 42.8 °F 38.6 °F 39.2 °F 87% 29.65 in 6.2 mi SE 6.9 mph - N/A   Scattered Clouds
4:00 AM 41.0 °F 35.2 °F 39.2 °F 93% 29.65 in 6.2 mi ESE 9.2 mph - N/A   Partly Cloudy
4:30 AM 41.0 °F 35.8 °F 39.2 °F 93% 29.65 in 6.2 mi ESE 8.1 mph - N/A   Partly Cloudy
5:00 AM 41.0 °F 35.8 °F 39.2 °F 93% 29.68 in 6.2 mi ESE 8.1 mph - N/A   Partly Cloudy
5:30 AM 41.0 °F 35.8 °F 39.2 °F 93% 29.68 in 6.2 mi ESE 8.1 mph - N/A   Partly Cloudy
6:00 AM 40 °F - 39 °F 94% 29.69 in 12 mi ESE 8.9 mph - -   Partly Cloudy
6:00 AM 41.0 °F 35.2 °F 39.2 °F 93% 29.68 in 6.2 mi ESE 9.2 mph - N/A   Partly Cloudy
6:30 AM 41.0 °F 35.8 °F 39.2 °F 93% 29.68 in 6.2 mi ESE 8.1 mph - N/A   Partly Cloudy
7:00 AM 41.0 °F 35.2 °F 39.2 °F 93% 29.68 in 6.2 mi ESE 9.2 mph - N/A   Partly Cloudy
7:30 AM 41.0 °F 35.2 °F 39.2 °F 93% 29.68 in 6.2 mi ESE 9.2 mph - N/A   Partly Cloudy
8:00 AM 41.0 °F 35.2 °F 39.2 °F 93% 29.71 in 6.2 mi ESE 9.2 mph - N/A   Scattered Clouds
8:30 AM 42.8 °F 38.0 °F 41.0 °F 93% 29.71 in 6.2 mi ESE 8.1 mph - N/A   Mostly Cloudy
9:00 AM 42.8 °F 37.5 °F 41.0 °F 93% 29.71 in 6.2 mi East 9.2 mph - N/A   Mostly Cloudy
9:30 AM 42.8 °F 37.5 °F 42.8 °F 100% 29.71 in 6.2 mi East 9.2 mph - N/A   Mostly Cloudy
10:00 AM 44.6 °F 40.2 °F 42.8 °F 93% 29.71 in 6.2 mi ESE 8.1 mph - N/A   Mostly Cloudy
10:30 AM 44.6 °F 40.2 °F 42.8 °F 93% 29.71 in 6.2 mi East 8.1 mph - N/A   Mostly Cloudy
11:00 AM 44.6 °F 40.2 °F 42.8 °F 93% 29.71 in 6.2 mi East 8.1 mph - N/A   Mostly Cloudy
11:30 AM 46.4 °F 41.5 °F 42.8 °F 87% 29.71 in 6.2 mi ESE 10.4 mph - N/A   Scattered Clouds
12:00 PM 47 °F - 44 °F 86% 29.73 in 25 mi ESE 6.7 mph - -   Scattered Clouds
12:00 PM 46.4 °F 42.9 °F 44.6 °F 93% 29.71 in 6.2 mi ESE 6.9 mph - N/A   Partly Cloudy
12:30 PM 48.2 °F - 44.6 °F 87% 29.71 in 6.2 mi ESE 9.2 mph - N/A   Partly Cloudy
1:00 PM 50.0 °F - 44.6 °F 82% 29.71 in 6.2 mi East 10.4 mph - N/A   Partly Cloudy
1:30 PM 50.0 °F - 44.6 °F 82% 29.71 in 6.2 mi East 10.4 mph - N/A   Partly Cloudy
2:00 PM 50.0 °F - 44.6 °F 82% 29.71 in 6.2 mi East 8.1 mph - N/A   Mostly Cloudy
2:30 PM 50.0 °F - 46.4 °F 87% 29.71 in 6.2 mi East 6.9 mph - N/A   Scattered Clouds
3:00 PM 48.2 °F - 46.4 °F 93% 29.71 in 6.2 mi East 8.1 mph - N/A   Scattered Clouds
3:30 PM 50.0 °F - 46.4 °F 87% 29.71 in 6.2 mi East 5.8 mph - N/A   Mostly Cloudy
4:00 PM 48.2 °F - 46.4 °F 93% 29.71 in 6.2 mi East 9.2 mph - N/A   Mostly Cloudy
4:30 PM 48.2 °F - 44.6 °F 87% 29.74 in 6.2 mi East 8.1 mph - N/A   Mostly Cloudy
5:00 PM 48.2 °F - 44.6 °F 87% 29.74 in 6.2 mi East 8.1 mph - N/A   Mostly Cloudy
5:30 PM 48.2 °F - 44.6 °F 87% 29.74 in 6.2 mi East 6.9 mph - N/A   Mostly Cloudy
6:00 PM 48 °F - 45 °F 85% 29.76 in 16 mi ENE 6.7 mph - -   Mostly Cloudy
6:00 PM 48.2 °F - 44.6 °F 87% 29.74 in 6.2 mi ENE 6.9 mph - N/A   Mostly Cloudy
6:30 PM 48.2 °F - 44.6 °F 87% 29.74 in 6.2 mi ENE 9.2 mph - N/A   Mostly Cloudy
7:00 PM 48.2 °F - 44.6 °F 87% 29.77 in 6.2 mi ENE 8.1 mph - N/A   Mostly Cloudy
7:30 PM 48.2 °F - 44.6 °F 87% 29.77 in 6.2 mi East 6.9 mph - N/A   Mostly Cloudy
8:00 PM 48.2 °F - 44.6 °F 87% 29.77 in 6.2 mi East 8.1 mph - N/A   Mostly Cloudy
8:30 PM 48.2 °F - 44.6 °F 87% 29.77 in 6.2 mi East 6.9 mph - N/A   Mostly Cloudy
9:00 PM 48.2 °F - 44.6 °F 87% 29.77 in 6.2 mi NE 5.8 mph - N/A   Mostly Cloudy
9:30 PM 48.2 °F - 44.6 °F 87% 29.77 in 6.2 mi ENE 6.9 mph - N/A   Overcast
10:00 PM 48.2 °F - 44.6 °F 87% 29.77 in 6.2 mi ENE 6.9 mph - N/A   Mostly Cloudy
10:30 PM 48.2 °F - 44.6 °F 87% 29.77 in 6.2 mi NE 5.8 mph - N/A   Mostly Cloudy
11:00 PM 48.2 °F - 44.6 °F 87% 29.80 in 6.2 mi NE 5.8 mph - N/A   Mostly Cloudy
11:30 PM 46.4 °F 42.9 °F 44.6 °F 93% 29.80 in 6.2 mi NE 6.9 mph - N/A   Mostly Cloudy